Погода в Орехово-Зуево

Россия / Московская область     55°48′21″N   38°58′53″E
темп.,
°C
ветер,
м/с
пор.,
м/с
влажн.,
%
обл.,
%
осадки,
мм/ч
давл.,
гПа
погр.,
м
16 мая, вс
вс1600:00+13ю311930 0.0 1010272
03:00+12ююз410960 0.0 1011293
06:00+12ююз38930 0.0 1012262
09:00+18юз47690 0.0 1013743
12:00+21юз47555 0.0 10131558
15:00+21юз58561 0.3 10131628
18:00+20юз48670 0.1 1013902
21:00+15юз22880 0.1 101414
17 мая, пн
пн1700:00+13ю1191100 0.0 101510
03:00+12вюв1191100 0.0 101510
06:00+14в238839 0.0 101694
09:00+20в356544 0.0 1016513
12:00+24в45507 0.0 10141145
15:00+26вюв574859 0.0 10131546
18:00+24юв496329 0.0 1012481
21:00+17вюв312805 0.0 1012214
18 мая, вт
вт1800:00+15вюв31189100 0.0 1012189
03:00+15вюв413865 0.0 1012262
06:00+16юв4147410 0.0 1011376
09:00+22юв5145159 0.0 1011640
12:00+26юв6103889 0.0 10111125
15:00+28юв5103775 0.0 10102288
18:00+25юв5105018 0.0 1009583
21:00+19вюв41471100 0.0 1009420
19 мая, ср
ср1900:00+18вюв4157461 0.0 1009438
03:00+17вюв515665 0.0 1008488
06:00+17юв412730 0.0 1009386
09:00+22юв5105485 0.0 1009634
12:00+26юв6104497 0.0 10081424
15:00+26юв594491 0.0 10081426
18:00+23ююз486132 0.0 1008720
21:00+16юв51676100 1.3 1009696
20 мая, чт
чт2000:00+14юв51292100 3.1 1009528
03:00+13вюв4119667 3.2 1007396
06:00+14юв399664 0.0 1007363
09:00+15ю489298 0.3 1007625
12:00+19ююв696455 0.4 10081445
15:00+18ю7106935 1.4 10091355
18:00+17ю597022 0.1 10091160
21:00+14ююз410875 0.1 1011550